This is the latest recevied weather packets stored in our database for station/object PY2UEP-1. If no packets are shown the sender has not sent any weather packets the latest 10 day(s).
| Time | Temp. | Humidity | Pressure | Rain* | Wind** | Luminosity | Snow |
|---|---|---|---|---|---|---|---|
| 1787401861 | 17.78° C | 64% | 1023 hPa | 0 mm | - | - | - |
| 1787401561 | 17.78° C | 66% | 1023.1 hPa | 0 mm | - | - | - |
| 1787401261 | 17.78° C | 66% | 1023.1 hPa | 0 mm | - | - | - |
| 1787400961 | 17.22° C | 68% | 1023.1 hPa | 0 mm | - | - | - |
| 1787400661 | 16.67° C | 69% | 1023.1 hPa | 0 mm | - | - | - |
| 1787400361 | 16.67° C | 69% | 1023.1 hPa | 0 mm | - | - | - |
| 1787400061 | 16.67° C | 69% | 1022.9 hPa | 0 mm | - | - | - |
| 1787399761 | 16.67° C | 70% | 1023 hPa | 0 mm | - | - | - |
| 1787399461 | 16.11° C | 72% | 1022.9 hPa | 0 mm | - | - | - |
| 1787399161 | 15.56° C | 72% | 1022.6 hPa | 0 mm | - | - | - |
| 1787398861 | 15.56° C | 73% | 1022.6 hPa | 0 mm | - | - | - |
| 1787398561 | 15° C | 74% | 1022.4 hPa | 0 mm | - | - | - |
| 1787398261 | 15° C | 75% | 1022.4 hPa | 0 mm | - | - | - |
| 1787397961 | 15° C | 75% | 1022.3 hPa | 0 mm | - | - | - |
| 1787397661 | 14.44° C | 76% | 1022.3 hPa | 0 mm | - | - | - |
| 1787397361 | 14.44° C | 77% | 1022.2 hPa | 0 mm | - | - | - |
| 1787396761 | 13.89° C | 78% | 1022 hPa | 0 mm | - | - | - |
| 1787396461 | 13.89° C | 78% | 1022 hPa | 0 mm | - | - | - |
| 1787396161 | 13.89° C | 79% | 1021.9 hPa | 0 mm | - | - | - |
| 1787395861 | 13.33° C | 79% | 1021.8 hPa | 0 mm | - | - | - |
| 1787395561 | 13.33° C | 79% | 1021.7 hPa | 0 mm | - | - | - |
| 1787395261 | 13.33° C | 79% | 1021.8 hPa | 0 mm | - | - | - |
| 1787394961 | 12.78° C | 80% | 1021.8 hPa | 0 mm | - | - | - |
| 1787394661 | 12.78° C | 80% | 1021.6 hPa | 0 mm | - | - | - |
| 1787394361 | 12.78° C | 81% | 1021.5 hPa | 0 mm | - | - | - |
* Rain since midnight (hover to see other rain measurements)
** Current wind speed in m/s (hover to see current wind gust speed)